Simultaneous Nadir Overpasses (SNOs) Predictions

Prediction of SNOs between GOES-14 and AQUA Satellite Orbit:

Table of predicted SNOs for the next 14.0 days since TLE Epoch: 11/26/2022
Index Date Time (GOES-14) GOES-14 Lat,Lon AQUA Lat,Lon Distance(km) Time Diff (sec)
1 11/26/2022 20:31:38 0.01,-104.04 0.41,-102.05 225.95 80
2 11/27/2022 08:52:44 -0.03,-104.36 0.56,-107.18 320.68 80
3 11/29/2022 08:37:09 -0.02,-104.35 -0.10,-104.03 36.14 80
4 12/01/2022 08:24:14 -0.02,-104.34 -0.78,-100.89 393.58 80
5 12/01/2022 20:45:26 0.04,-104.02 -0.37,-106.02 227.44 80
6 12/03/2022 20:35:10 0.04,-104.02 0.27,-102.86 131.20 80
7 12/04/2022 08:56:16 -0.05,-104.37 0.69,-108.00 411.42 80
8 12/05/2022 20:22:14 0.03,-104.03 0.93, -99.71 490.25 80
9 12/06/2022 08:43:20 -0.04,-104.37 0.03,-104.84 53.01 80
10 12/08/2022 08:27:43 -0.03,-104.37 -0.59,-101.68 305.40 80
11 12/08/2022 20:48:54 0.05,-104.01 -0.54,-106.81 318.60 80
